Location: Lake Runnemede Observatory
(43.4843°N, 72.3851°W)
Time: 11:03:35
(UTC-04:00)

Amateur Radio Satellites - All Passes

Search period start: 04 May 2015 10:33
Search period end: 05 May 2015 10:33
Location: Lake Runnemede Observatory, 43.4843°N, 72.3851°W

Satellite Date Start Highest point End Downlink Frequencies (MHz)
Time Altitude Azimuth
AIST 2 04 May 10:34:03 10:38:15 61° 240° (WSW) 10:42:21 435.215
POLYITAN 1 04 May 10:39:35 10:43:39 47° 72° (ENE) 10:47:48 437.675
HUMSAT D 04 May 10:40:46 10:44:23 26° 94° (E) 10:48:01 437.325/437.525
YUBILEINY 04 May 10:47:28 10:56:16 71° 282° (WNW) 11:05:04 435.215
QB50P1 04 May 10:52:17 10:56:27 64° 75° (ENE) 11:00:42 145.935-145.965
AAUSAT CUBESAT 2 04 May 10:54:22 10:57:56 27° 291° (WNW) 11:01:25 437.432
DX 1 04 May 10:54:33 10:58:43 42° 99° (E) 11:02:53 434.975-435.025
SEEDS 04 May 11:01:27 11:04:21 18° 294° (WNW) 11:07:06 437.485
DELFI C3 04 May 11:01:29 11:05:29 62° 286° (WNW) 11:09:26 145.870
ESTCUBE 1 04 May 11:03:20 11:05:47 15° 89° (E) 11:08:25 437.505/2401.250
VELOX 1 04 May 11:04:13 11:07:56 26° 94° (E) 11:11:42 145.980
50 SAT 04 May 11:05:08 11:08:35 27° 95° (E) 11:12:02 437.505
ANTELSAT 04 May 11:07:17 11:11:44 44° 262° (W) 11:16:15 437.575/2403.000
Cosmos 2504 04 May 11:08:25 11:13:43 19° 79° (E) 11:19:22 435.465 / 435.565
BUGSAT 1 04 May 11:13:29 11:17:30 76° 75° (ENE) 11:21:35 437.445
CINEMA 3 04 May 11:14:55 11:19:12 28° 293° (WNW) 11:23:22 145.822/145.860
HO-68 04 May 11:20:35 11:26:32 28° 301° (WNW) 11:32:18 435.675
QB50P2 04 May 11:22:01 11:26:12 58° 259° (W) 11:30:26 145.880/145.840
UKube-1 04 May 11:23:36 11:27:58 82° 103° (ESE) 11:32:19 .
AISAT 04 May 11:25:37 11:29:55 45° 99° (E) 11:34:14 437.250
RS-15 04 May 11:25:49 11:32:44 21° 101° (ESE) 11:40:22 29.354- 29.394
SO-50 04 May 11:30:02 11:33:25 18° 325° (NW) 11:36:47 436.795
NANOSAT C BR1 04 May 11:33:20 11:37:23 44° 261° (W) 11:41:29 145.865
FUNcube-1 04 May 11:34:31 11:38:52 42° 289° (WNW) 11:43:06 145.935
Oscar 11 04 May 11:41:16 11:44:32 21° 294° (WNW) 11:47:41 145.826/435.025
POPSAT HIP 1 04 May 11:41:16 11:45:12 36° 263° (W) 11:49:10 437.405
ISS 04 May 11:44:46 11:47:13 19° 356° (N) 11:49:40 145.825
Cosmos 2491 04 May 11:45:06 11:49:14 14° 285° (WNW) 11:52:44 435.465 / 435.565
DOVE 4 04 May 11:45:06 11:45:54 10° 302° (WNW) 11:46:24 437.250
CUBEBUG 2 04 May 11:46:03 11:49:54 24° 294° (WNW) 11:53:34 437.445
AIST 1 04 May 11:51:10 11:54:36 23° 271° (W) 11:57:57
UWE-3 04 May 11:51:35 11:55:23 24° 293° (WNW) 11:59:04 435.000/436.395/437.385
TIGRISAT 04 May 11:54:34 11:57:35 16° 271° (W) 12:00:28 435.000
UNISAT 6 04 May 12:04:16 12:06:33 13° 273° (W) 12:08:36 437.425
ZACube-1 04 May 12:04:37 12:08:11 22° 294° (WNW) 12:11:37 437.345
DUCHIFAT 1 04 May 12:05:10 12:08:28 21° 268° (W) 12:11:41 145.980
HUMSAT D 04 May 12:16:22 12:20:09 29° 291° (WNW) 12:23:50 437.325/437.525
CUBEBUG 1 04 May 12:16:53 12:21:17 77° 102° (ESE) 12:25:42 437.445
POLYITAN 1 04 May 12:17:11 12:19:54 16° 270° (W) 12:22:28 437.675
QB50P1 04 May 12:31:14 12:32:52 12° 272° (W) 12:34:15 145.935-145.965
DX 1 04 May 12:31:28 12:34:43 20° 295° (WNW) 12:37:52 434.975-435.025
ESTCUBE 1 04 May 12:38:40 12:43:05 56° 287° (WNW) 12:47:29 437.505/2401.250
50 SAT 04 May 12:39:59 12:43:18 24° 292° (WNW) 12:46:30 437.505
VELOX 1 04 May 12:40:33 12:44:32 32° 291° (WNW) 12:48:28 145.980
Oscar 19 04 May 12:49:19 12:54:07 41° 69° (ENE) 12:59:01 437.125/150
YUBILEINY 04 May 12:50:04 12:55:09 15° 306° (NW) 12:59:45 435.215
Cosmos 2504 04 May 12:57:17 13:06:10 87° 97° (E) 13:14:45 435.465 / 435.565
SPROUT 04 May 12:59:27 13:03:46 62° 101° (E) 13:08:04 437.525
UKube-1 04 May 13:02:06 13:03:32 11° 299° (WNW) 13:04:46 .
AISAT 04 May 13:02:57 13:06:14 20° 295° (WNW) 13:09:24 437.250
VERMONT LUNAR 04 May 13:16:18 13:19:13 29° 162° (SSE) 13:22:11 437.305
ISS 04 May 13:21:29 13:24:18 26° 16° (NNE) 13:27:08 145.825
ITUPSAT 1 04 May 13:23:25 13:25:47 14° 88° (E) 13:28:24 437.325
TISAT 1 04 May 13:27:00 13:31:18 86° 287° (WNW) 13:35:35 437.305
RS-15 04 May 13:32:42 13:43:35 84° 123° (ESE) 13:54:48 29.354- 29.394
Gurwin Techsat 1B 04 May 13:33:45 13:38:18 31° 66° (ENE) 13:42:57 435.225
ITAMSAT 1 04 May 13:45:43 13:50:34 43° 70° (ENE) 13:55:28 435.822/435.867
BEESAT 04 May 13:46:45 13:50:35 25° 93° (E) 13:54:31 436.000
AO-7 04 May 13:47:39 13:52:46 19° 48° (NE) 13:58:13 29.400- 29.500
PHONESAT 2.4 04 May 13:47:56 13:50:44 22° 157° (SSE) 13:53:34 2401.200-2431.200
JAS-2 04 May 13:48:30 13:51:29 13° 54° (NE) 13:54:46 435.910
SWISSCUBE 04 May 13:50:46 13:54:53 29° 95° (E) 13:59:03 437.505
CUBEBUG 1 04 May 13:55:21 13:57:07 12° 298° (WNW) 13:58:40 437.445
PCSat 04 May 13:57:27 14:01:16 19° 39° (NE) 14:05:11 145.827
HORYU 2 04 May 14:06:11 14:07:16 11° 60° (ENE) 14:08:36 437.375
Oscar 19 04 May 14:29:19 14:33:39 26° 267° (W) 14:37:56 437.125/150
SPROUT 04 May 14:37:01 14:39:24 14° 297° (WNW) 14:41:38 437.525
STARS 04 May 14:48:48 14:50:26 12° 88° (E) 14:52:18 437.465
VERMONT LUNAR 04 May 14:53:05 14:56:20 51° 178° (S) 14:59:37 437.305
Cosmos 2504 04 May 14:54:07 15:00:48 22° 299° (WNW) 15:07:00 435.465 / 435.565
ISS 04 May 14:57:39 15:00:55 73° 213° (SSW) 15:04:09 145.825
ITUPSAT 1 04 May 14:59:30 15:04:14 66° 286° (WNW) 15:08:57 437.325
GONETS M04 04 May 15:12:17 15:20:23 45° 88° (E) 15:28:39
Gurwin Techsat 1B 04 May 15:13:17 15:18:12 37° 264° (W) 15:23:06 435.225
CUSAT 1 04 May 15:13:33 15:16:54 20° 81° (E) 15:21:07 437.405
DANDE 04 May 15:17:02 15:19:18 14° 79° (ENE) 15:22:08 436.750
BEESAT 04 May 15:24:10 15:28:34 37° 291° (WNW) 15:32:55 436.000
PHONESAT 2.4 04 May 15:25:07 15:28:33 48° 173° (S) 15:32:01 2401.200-2431.200
ITAMSAT 1 04 May 15:26:01 15:30:17 25° 267° (W) 15:34:27 435.822/435.867
JAS-2 04 May 15:27:53 15:35:27 60° 71° (ENE) 15:42:30 435.910
SWISSCUBE 04 May 15:28:31 15:32:45 32° 292° (WNW) 15:36:55 437.505
AO-7 04 May 15:36:08 15:44:21 74° 68° (ENE) 15:52:38 29.400- 29.500
HORYU 2 04 May 15:38:47 15:43:17 89° 254° (WSW) 15:47:50 437.375
PCSat 04 May 15:39:58 15:45:27 85° 238° (WSW) 15:50:52 145.827
RS-15 04 May 15:47:27 15:57:25 37° 329° (NNW) 16:07:36 29.354- 29.394
KKS-1 04 May 15:52:29 15:57:01 90° 137° (SE) 16:01:31 437.445
STARS 04 May 16:23:00 16:27:27 69° 286° (WNW) 16:31:52 437.465
Cubesat XI-IV 04 May 16:26:57 16:27:14 10° 56° (NE) 16:27:50 437.490
VERMONT LUNAR 04 May 16:30:24 16:33:29 35° 195° (SSW) 16:36:36 437.305
SO-50 04 May 16:38:12 16:41:48 20° 37° (NE) 16:45:29 436.795
Cosmos 2499 04 May 16:49:10 16:56:39 34° 86° (E) 17:04:00 435.465 / 435.565
CUSAT 1 04 May 16:54:16 16:58:51 52° 287° (WNW) 17:04:59 437.405
DANDE 04 May 16:57:09 17:01:26 63° 285° (WNW) 17:07:20 436.750
PHONESAT 2.4 04 May 17:03:07 17:06:33 45° 190° (S) 17:09:59 2401.200-2431.200
GONETS M04 04 May 17:09:01 17:17:19 43° 289° (WNW) 17:25:37
JAS-2 04 May 17:14:08 17:20:50 30° 268° (W) 17:27:00 435.910
PCSat 04 May 17:26:08 17:28:08 12° 256° (WSW) 17:29:47 145.827
MOZHAYETS 4 04 May 17:31:04 17:35:40 74° 102° (ESE) 17:40:14
AO-7 04 May 17:31:19 17:38:00 25° 269° (W) 17:44:26 29.400- 29.500
KKS-1 04 May 17:31:47 17:33:01 11° 300° (WNW) 17:34:02 437.445
CUTE-I 04 May 17:48:39 17:53:45 51° 71° (ENE) 17:58:55 437.470
CUBESAT XI-V 04 May 18:00:31 18:02:20 12° 87° (E) 18:04:25 437.345
Cubesat XI-IV 04 May 18:01:12 18:06:28 67° 73° (ENE) 18:11:46 437.490
RS-15 04 May 18:05:27 18:14:10 25° 3° (N) 18:23:13 29.354- 29.394
VERMONT LUNAR 04 May 18:09:01 18:10:22 12° 210° (SSW) 18:11:39 437.305
SO-50 04 May 18:18:00 18:22:59 80° 237° (WSW) 18:27:53 436.795
HO-68 04 May 18:20:03 18:22:09 12° 48° (NE) 18:24:38 435.675
Cosmos 2499 04 May 18:40:55 18:49:33 56° 284° (WNW) 18:57:41 435.465 / 435.565
PHONESAT 2.4 04 May 18:41:41 18:44:20 19° 205° (SSW) 18:46:57 2401.200-2431.200
STRAND 1 04 May 18:52:02 18:55:41 20° 91° (E) 18:59:29 437.568
YUBILEINY 04 May 19:02:06 19:05:45 13° 52° (NE) 19:09:57 435.215
PRISM 04 May 19:02:39 19:06:09 27° 95° (E) 19:09:42 437.425
M-CUBED/EXP-1 PRIME 04 May 19:04:26 19:07:41 26° 99° (E) 19:10:46 437.505
MOZHAYETS 4 04 May 19:10:07 19:12:22 13° 298° (WNW) 19:14:23
CANX-2 04 May 19:11:59 19:12:14 10° 61° (ENE) 19:12:44 2200.000
BRITE-PL 04 May 19:12:44 19:16:00 22° 65° (ENE) 19:19:32 437.365/2234.400
CUTE 1.7 + AOD 2 04 May 19:18:41 19:19:45 11° 62° (ENE) 19:21:03 437.475
O/OREOS (USA 219) 04 May 19:22:15 19:23:35 11° 99° (E) 19:25:11 437.305
CUTE-I 04 May 19:30:05 19:34:11 22° 269° (W) 19:38:09 437.470
DOVE 4 04 May 19:34:58 19:37:49 17° 63° (ENE) 19:40:56 437.250
CUBESAT XI-V 04 May 19:35:45 19:40:22 70° 285° (WNW) 19:44:59 437.345
AUBIESAT-1 04 May 19:36:48 19:40:36 56° 105° (ESE) 19:44:05 437.475
COMPASS 1 04 May 19:39:00 19:40:34 12° 63° (ENE) 19:42:20 437.405
Cubesat XI-IV 04 May 19:43:43 19:47:09 17° 271° (W) 19:50:21 437.490
GOMX 1 04 May 19:45:59 19:49:50 30° 68° (ENE) 19:53:58 467.674
HO-68 04 May 20:01:33 20:08:28 54° 67° (ENE) 20:15:27 435.675
SO-50 04 May 20:01:55 20:02:49 10° 253° (WSW) 20:03:25 436.795
AAUSAT CUBESAT 2 04 May 20:11:06 20:14:21 22° 67° (ENE) 20:17:40 437.432
SEEDS 04 May 20:17:56 20:21:51 36° 71° (ENE) 20:25:48 437.485
RS-15 04 May 20:20:03 20:30:40 42° 36° (NE) 20:41:51 29.354- 29.394
STRAND 1 04 May 20:30:17 20:35:16 52° 289° (WNW) 20:40:12 437.568
PRISM 04 May 20:38:07 20:41:34 26° 292° (WNW) 20:44:57 437.425
M-CUBED/EXP-1 PRIME 04 May 20:39:19 20:42:31 24° 299° (WNW) 20:45:26 437.505
CINEMA 3 04 May 20:40:22 20:44:34 38° 70° (ENE) 20:49:00 145.822/145.860
Cosmos 2499 04 May 20:41:57 20:44:56 12° 308° (NW) 20:47:16 435.465 / 435.565
CANX-2 04 May 20:43:13 20:47:33 89° 256° (WSW) 20:51:54 2200.000
BRITE-PL 04 May 20:50:17 20:54:19 38° 264° (W) 20:58:35 437.365/2234.400
CUTE 1.7 + AOD 2 04 May 20:50:47 20:55:06 81° 256° (WSW) 20:59:26 437.475
Cosmos 2491 04 May 20:52:30 20:59:29 29° 83° (E) 21:06:46 435.465 / 435.565
FUNcube-1 04 May 20:56:10 20:59:18 20° 65° (ENE) 21:02:38 145.935
YUBILEINY 04 May 20:56:15 21:04:56 63° 77° (ENE) 21:13:32 435.215
O/OREOS (USA 219) 04 May 20:57:54 21:02:28 75° 294° (WNW) 21:07:02 437.305
Oscar 11 04 May 21:00:22 21:04:20 36° 70° (ENE) 21:08:21 145.826/435.025
CUBEBUG 2 04 May 21:08:10 21:12:22 38° 70° (ENE) 21:16:44 437.445
DOVE 4 04 May 21:10:43 21:15:07 56° 261° (W) 21:19:49 437.250
COMPASS 1 04 May 21:11:31 21:15:45 71° 258° (WSW) 21:20:00 437.405
UWE-3 04 May 21:12:53 21:16:57 35° 70° (ENE) 21:21:12 435.000/436.395/437.385
AUBIESAT-1 04 May 21:13:06 21:14:54 13° 304° (NW) 21:16:32 437.475
GOMX 1 04 May 21:24:12 21:28:00 28° 267° (W) 21:31:59 467.674
ZACube-1 04 May 21:24:43 21:28:49 37° 70° (ENE) 21:33:02 437.345
HUMSAT D 04 May 21:33:59 21:37:19 23° 67° (ENE) 21:40:45 437.325/437.525
AAUSAT CUBESAT 2 04 May 21:45:56 21:49:48 34° 264° (W) 21:53:40 437.432
DELFI C3 04 May 21:49:42 21:53:47 88° 254° (WSW) 21:57:53 145.870
HO-68 04 May 21:50:13 21:56:32 31° 266° (W) 22:02:45 435.675
DX 1 04 May 21:51:15 21:55:19 42° 71° (ENE) 21:59:27 434.975-435.025
50 SAT 04 May 21:51:53 21:54:50 20° 67° (ENE) 21:57:55 437.505
SEEDS 04 May 21:54:30 21:57:47 21° 268° (W) 22:00:59 437.485
VELOX 1 04 May 22:03:10 22:06:50 27° 68° (ENE) 22:10:37 145.980
ESTCUBE 1 04 May 22:04:24 22:07:13 17° 64° (ENE) 22:10:11 437.505/2401.250
TIGRISAT 04 May 22:09:26 22:10:21 11° 85° (E) 22:11:34 435.000
UNISAT 6 04 May 22:17:16 22:19:33 14° 87° (E) 22:22:02 437.425
CINEMA 3 04 May 22:18:13 22:21:56 24° 269° (W) 22:25:41 145.822/145.860
UKube-1 04 May 22:19:23 22:23:42 80° 75° (ENE) 22:28:02 .
AISAT 04 May 22:24:33 22:28:45 46° 71° (ENE) 22:33:01 437.250
FUNcube-1 04 May 22:31:02 22:35:20 46° 262° (W) 22:39:44 145.935
RS-15 04 May 22:32:38 22:44:10 74° 241° (WSW) 22:56:09 29.354- 29.394
Oscar 11 04 May 22:37:12 22:40:39 22° 268° (W) 22:44:00 145.826/435.025
O/OREOS (USA 219) 04 May 22:41:47 22:42:49 10° 315° (NW) 22:43:38 437.305
AIST 1 04 May 22:45:10 22:47:51 17° 87° (E) 22:50:41
CUBEBUG 2 04 May 22:45:36 22:49:14 23° 269° (W) 22:52:51 437.445
Cosmos 2491 04 May 22:47:07 22:55:48 64° 283° (WNW) 23:04:33 435.465 / 435.565
UWE-3 04 May 22:49:52 22:53:35 24° 268° (W) 22:57:20 435.000/436.395/437.385
Cosmos 2504 04 May 22:49:58 22:56:45 33° 67° (ENE) 23:03:18 435.465 / 435.565
YUBILEINY 04 May 22:53:58 23:01:12 29° 277° (W) 23:08:10 435.215
BUGSAT 1 04 May 22:57:17 22:57:54 10° 87° (E) 22:58:46 437.445
ANTELSAT 04 May 22:58:15 23:02:34 36° 96° (E) 23:06:47 437.575/2403.000
ZACube-1 04 May 23:01:44 23:05:19 23° 268° (W) 23:08:52 437.345
QB50P2 04 May 23:06:51 23:10:06 21° 92° (E) 23:13:26 145.880/145.840
HUMSAT D 04 May 23:08:56 23:12:53 35° 264° (W) 23:16:52 437.325/437.525
CUBEBUG 1 04 May 23:14:03 23:18:21 74° 75° (ENE) 23:22:41 437.445
NANOSAT C BR1 04 May 23:17:20 23:20:56 26° 94° (E) 23:24:34 145.865
POPSAT HIP 1 04 May 23:25:10 23:29:02 32° 96° (E) 23:32:55 437.405
50 SAT 04 May 23:25:44 23:29:26 34° 263° (W) 23:33:09 437.505
DX 1 04 May 23:28:44 23:31:49 18° 268° (W) 23:34:48 434.975-435.025
ESTCUBE 1 04 May 23:39:20 23:43:44 53° 260° (W) 23:48:09 437.505/2401.250
VELOX 1 04 May 23:39:28 23:43:22 29° 265° (W) 23:47:13 145.980
TIGRISAT 04 May 23:43:08 23:47:50 81° 284° (WNW) 23:52:24 435.000
DUCHIFAT 1 04 May 23:47:32 23:51:47 55° 100° (E) 23:55:58 145.980
BEESAT 3 04 May 23:51:50 23:55:20 29° 116° (ESE) 23:58:56 437.485
UNISAT 6 04 May 23:52:14 23:56:53 64° 286° (WNW) 00:01:23 437.425
SPROUT 04 May 23:54:37 23:58:47 54° 73° (ENE) 00:03:01 437.525
POLYITAN 1 04 May 23:59:27 00:03:48 78° 102° (ESE) 00:08:07 437.675
AISAT 05 May 00:02:38 00:05:39 17° 269° (W) 00:08:31 437.250
BEESAT 2 05 May 00:06:31 00:10:12 33° 117° (ESE) 00:14:00 435.950
QB50P1 05 May 00:11:56 00:16:15 78° 285° (WNW) 00:20:33 145.935-145.965
TISAT 1 05 May 00:20:07 00:24:18 82° 76° (ENE) 00:28:33 437.305
AIST 1 05 May 00:21:10 00:25:13 40° 283° (WNW) 00:29:15
BUGSAT 1 05 May 00:29:44 00:33:56 72° 285° (WNW) 00:38:09 437.445
ITUPSAT 1 05 May 00:31:12 00:34:35 20° 64° (ENE) 00:38:06 437.325
AIST 2 05 May 00:33:45 00:36:58 21° 113° (ESE) 00:40:16 435.215
ANTELSAT 05 May 00:35:20 00:39:11 25° 293° (WNW) 00:42:52 437.575/2403.000
QB50P2 05 May 00:42:09 00:46:08 36° 290° (WNW) 00:50:05 145.880/145.840
Cosmos 2504 05 May 00:43:07 00:50:33 50° 270° (W) 00:57:29 435.465 / 435.565
RS-15 05 May 00:47:38 00:55:00 18° 260° (W) 01:01:40 29.354- 29.394
Cosmos 2491 05 May 00:50:36 00:54:59 14° 308° (NW) 00:58:50 435.465 / 435.565
NANOSAT C BR1 05 May 00:53:00 00:56:46 29° 291° (WNW) 01:00:29 145.865
BEESAT 05 May 00:54:18 00:58:31 33° 68° (ENE) 01:02:48 436.000
CUBEBUG 1 05 May 00:54:24 00:55:20 10° 273° (W) 00:55:59 437.445
SWISSCUBE 05 May 00:58:24 01:02:47 39° 70° (ENE) 01:07:14 437.505
POPSAT HIP 1 05 May 01:01:15 01:04:48 25° 292° (WNW) 01:08:17 437.405
Oscar 19 05 May 01:01:27 01:03:37 13° 86° (E) 01:06:05 437.125/150
KKS-1 05 May 01:18:55 01:20:01 11° 60° (ENE) 01:21:22 437.445
GONETS M04 05 May 01:21:12 01:27:51 24° 61° (ENE) 01:34:46
TIGRISAT 05 May 01:23:16 01:23:50 10° 301° (WNW) 01:24:09 435.000
DUCHIFAT 1 05 May 01:24:36 01:27:12 16° 296° (WNW) 01:29:40 145.980
BEESAT 3 05 May 01:29:36 01:33:18 31° 313° (NW) 01:37:00 437.485
SPROUT 05 May 01:32:54 01:35:17 14° 271° (W) 01:37:30 437.525
POLYITAN 1 05 May 01:37:33 01:39:09 12° 298° (WNW) 01:40:33 437.675
BEESAT 2 05 May 01:44:46 01:48:22 28° 315° (NW) 01:51:58 435.950
CUSAT 1 05 May 01:46:57 01:53:48 30° 64° (ENE) 02:00:53 437.405
STARS 05 May 01:47:08 01:49:15 14° 62° (ENE) 01:51:35 437.465
DANDE 05 May 01:52:12 01:58:48 27° 63° (ENE) 02:05:54 436.750
ITAMSAT 1 05 May 01:58:57 02:01:20 13° 87° (E) 02:03:59 435.822/435.867
ITUPSAT 1 05 May 02:07:31 02:12:10 50° 261° (W) 02:16:49 437.325
AIST 2 05 May 02:11:12 02:15:19 43° 311° (NW) 02:19:26 435.215
BEESAT 05 May 02:32:15 02:36:24 28° 265° (W) 02:40:30 436.000
SWISSCUBE 05 May 02:36:54 02:40:49 24° 267° (W) 02:44:37 437.505
Oscar 19 05 May 02:38:30 02:43:43 81° 286° (WNW) 02:48:55 437.125/150
Cosmos 2499 05 May 02:42:50 02:43:18 10° 50° (NE) 02:44:19 435.465 / 435.565
KKS-1 05 May 02:51:35 02:56:02 87° 255° (WSW) 03:00:33 437.445
GONETS M04 05 May 03:17:02 03:25:56 81° 264° (W) 03:34:43
STARS 05 May 03:20:50 03:25:13 67° 258° (WSW) 03:29:40 437.465
Gurwin Techsat 1B 05 May 03:27:40 03:33:01 81° 103° (ESE) 03:38:21 435.225
CUSAT 1 05 May 03:29:03 03:37:16 72° 263° (W) 03:45:18 437.405
HORYU 2 05 May 03:30:12 03:32:55 16° 90° (E) 03:35:47 437.375
DANDE 05 May 03:34:38 03:42:55 80° 262° (W) 03:51:25 436.750
ITAMSAT 1 05 May 03:36:20 03:41:32 78° 286° (WNW) 03:46:44 435.822/435.867
AO-7 05 May 03:37:33 03:43:25 21° 89° (E) 03:49:38 29.400- 29.500
Oscar 19 05 May 04:20:18 04:22:20 12° 302° (WNW) 04:24:06 437.125/150
JAS-2 05 May 04:22:30 04:27:57 40° 95° (E) 04:32:59 435.910
Cosmos 2499 05 May 04:31:19 04:38:44 58° 76° (ENE) 04:45:44 435.465 / 435.565
MOZHAYETS 4 05 May 04:33:52 04:38:30 79° 74° (ENE) 04:43:09
AUBIESAT-1 05 May 04:52:55 04:55:04 13° 57° (ENE) 04:57:23 437.475
CUBESAT XI-V 05 May 05:05:13 05:07:45 15° 63° (ENE) 05:10:28 437.345
HORYU 2 05 May 05:05:34 05:09:56 51° 288° (WNW) 05:14:15 437.375
Gurwin Techsat 1B 05 May 05:09:17 05:12:25 15° 300° (WNW) 05:15:19 435.225
CUSAT 1 05 May 05:14:13 05:18:52 16° 280° (W) 05:22:59 437.405
GONETS M04 05 May 05:16:18 05:21:30 16° 283° (WNW) 05:26:09
ITAMSAT 1 05 May 05:18:30 05:20:17 11° 303° (WNW) 05:21:48 435.822/435.867
DANDE 05 May 05:19:48 05:25:16 19° 278° (W) 05:30:22 436.750
O/OREOS (USA 219) 05 May 05:27:56 05:31:48 28° 56° (ENE) 05:35:41 437.305
AO-7 05 May 05:28:55 05:37:18 84° 291° (WNW) 05:45:40 29.400- 29.500
M-CUBED/EXP-1 PRIME 05 May 05:52:25 05:57:06 52° 67° (ENE) 06:01:37 437.505
PRISM 05 May 05:54:10 05:57:31 25° 68° (ENE) 06:00:56 437.425
CUTE-I 05 May 06:05:28 06:09:00 18° 90° (E) 06:12:43 437.470
JAS-2 05 May 06:07:53 06:12:56 29° 297° (WNW) 06:17:30 435.910
STRAND 1 05 May 06:08:51 06:13:20 33° 67° (ENE) 06:17:54 437.568
MOZHAYETS 4 05 May 06:14:58 06:16:24 11° 274° (W) 06:17:33
Cubesat XI-IV 05 May 06:17:53 06:22:06 24° 92° (E) 06:26:26 437.490
PCSat 05 May 06:22:29 06:27:52 72° 118° (ESE) 06:33:18 145.827
AUBIESAT-1 05 May 06:24:31 06:29:19 87° 252° (WSW) 06:33:57 437.475
Cosmos 2499 05 May 06:25:22 06:31:22 26° 277° (W) 06:36:55 435.465 / 435.565
CUBESAT XI-V 05 May 06:40:11 06:44:45 64° 259° (W) 06:49:20 437.345
Cosmos 2491 05 May 07:01:08 07:05:45 15° 54° (NE) 07:10:52 435.465 / 435.565
O/OREOS (USA 219) 05 May 07:07:16 07:11:14 31° 255° (WSW) 07:15:08 437.305
AO-7 05 May 07:23:04 07:29:05 22° 309° (NW) 07:34:49 29.400- 29.500
M-CUBED/EXP-1 PRIME 05 May 07:28:38 07:32:10 20° 263° (W) 07:35:30 437.505
PRISM 05 May 07:29:16 07:32:54 29° 264° (W) 07:36:30 437.425
ISS 05 May 07:37:40 07:39:49 17° 134° (SE) 07:42:02 145.825
CUTE-I 05 May 07:44:19 07:49:34 61° 288° (WNW) 07:54:49 437.470
STRAND 1 05 May 07:48:00 07:52:33 32° 265° (W) 07:57:04 437.568
GOMX 1 05 May 07:48:49 07:49:32 10° 84° (E) 07:50:39 467.674
Cubesat XI-IV 05 May 07:57:22 08:02:28 47° 290° (WNW) 08:07:32 437.490
AUBIESAT-1 05 May 08:04:15 08:04:43 10° 268° (W) 08:04:54 437.475
PCSat 05 May 08:07:39 08:11:53 22° 318° (NW) 08:16:01 145.827
YUBILEINY 05 May 08:08:00 08:11:21 13° 75° (ENE) 08:15:21 435.215
BEESAT 3 05 May 08:09:14 08:12:48 28° 45° (NE) 08:16:22 437.485
BEESAT 2 05 May 08:24:32 08:28:17 32° 47° (NE) 08:32:00 435.950
CANX-2 05 May 08:28:55 08:31:15 15° 89° (E) 08:33:44 2200.000
SO-50 05 May 08:34:10 08:37:57 26° 113° (ESE) 08:41:56 436.795
CUTE 1.7 + AOD 2 05 May 08:36:11 08:38:45 16° 90° (E) 08:41:28 437.475
BRITE-PL 05 May 08:52:19 08:57:42 62° 100° (E) 09:03:20 437.365/2234.400
AIST 2 05 May 08:53:43 08:57:10 24° 43° (NE) 09:00:37 435.215
COMPASS 1 05 May 08:55:00 08:57:41 17° 90° (E) 09:00:30 437.405
Cosmos 2491 05 May 08:55:52 09:04:43 70° 79° (ENE) 09:13:32 435.465 / 435.565
DOVE 4 05 May 09:08:11 09:13:08 40° 96° (E) 09:18:08 437.250
TIGRISAT 05 May 09:09:06 09:11:04 13° 61° (ENE) 09:13:14 435.000
ISS 05 May 09:12:39 09:15:52 65° 329° (NNW) 09:19:07 145.825
HO-68 05 May 09:15:19 09:22:15 49° 99° (E) 09:29:09 435.675
UNISAT 6 05 May 09:17:29 09:20:12 16° 63° (ENE) 09:23:08 437.425
GOMX 1 05 May 09:23:08 09:28:33 78° 101° (ESE) 09:34:05 467.674
AAUSAT CUBESAT 2 05 May 09:27:40 09:31:26 33° 96° (E) 09:35:12 437.432
DELFI C3 05 May 09:30:14 09:31:28 11° 88° (E) 09:32:55 145.870
SEEDS 05 May 09:36:30 09:40:42 60° 100° (E) 09:44:50 437.485
BEESAT 3 05 May 09:47:09 09:50:50 32° 244° (WSW) 09:54:25 437.485
YUBILEINY 05 May 09:58:00 10:06:44 70° 94° (E) 10:15:28 435.215
ANTELSAT 05 May 09:58:08 10:02:25 38° 70° (ENE) 10:06:47 437.575/2403.000
QB50P2 05 May 10:01:23 10:04:23 19° 66° (ENE) 10:07:30 145.880/145.840
BEESAT 2 05 May 10:02:48 10:06:19 27° 245° (WSW) 10:09:44 435.950
CANX-2 05 May 10:03:24 10:07:34 51° 287° (WNW) 10:11:39 2200.000
UKube-1 05 May 10:07:47 10:09:26 12° 88° (E) 10:11:19 .
CINEMA 3 05 May 10:10:35 10:15:40 80° 103° (ESE) 10:20:40 145.822/145.860
CUTE 1.7 + AOD 2 05 May 10:10:53 10:15:00 46° 288° (WNW) 10:19:03 437.475
NANOSAT C BR1 05 May 10:11:21 10:14:40 23° 67° (ENE) 10:18:06 145.865
SO-50 05 May 10:13:47 10:18:17 44° 312° (NW) 10:22:57 436.795
FUNcube-1 05 May 10:18:29 10:22:35 32° 95° (E) 10:26:38 145.935
POPSAT HIP 1 05 May 10:19:18 10:22:54 28° 69° (ENE) 10:26:36 437.405
Oscar 11 05 May 10:22:11 10:26:30 62° 101° (E) 10:30:46 145.826/435.025
